Volver al catálogo

FENGYUN 1C DEB

ActivoPO
NORAD 30545·DEBRIS·🇨🇳 China

Lanzado May 10, 1999 desde Taiyuan Satellite Launch Center

Loading…

Próximos Pases (próximas 24 horas)

TLE

ActualizadoSource: Space-Track

Época: Sep 14, 2026, 11:06 UTC

1 30545U 99025AKK 26257.46291808  .00000107  00000-0  19014-3 0  9998
2 30545  98.9915  76.6530 0472689  62.7257 302.1190 13.20944485945703

Sigue FENGYUN 1C DEB en tiempo real con AllMySat

Download on the App Store